Location: Spor
(46.2167°N, 11.0500°E)
Time: 04:13:55
(UTC+00:00)

Shenzhou-11 Module - Pass Details

Date: 03 October 2020
Orbit: 150 x 162 km, 42.8° (Epoch: 06 October)

Event Time Altitude Azimuth Distance (km) Brightness Sun altitude
Rises 17:36:06 0° 261° (W) 1,592 7.2 -8.6°
Reaches altitude 10° 17:38:51 10° 213° (SSW) 824 4.2 -9.1°
Maximum altitude 17:39:13 10° 201° (SSW) 807 3.9 -9.1°
Drops below altitude 10° 17:39:35 10° 190° (S) 823 3.8 -9.2°
Enters shadow 17:40:57 - 157° (SSE) 1,107 4.1 -9.4°
